UAL968 KSFO-EHAM

Flight info

Callsign UAL968
Flight time N/A
Altitude 35000
Route SNTNA2 ORRCA DCT FMG J94 LLC DCT PARZZ Q121 SWTHN/N0480F370 DCT KOBID DCT 54N090W DCT KEMSA DCT LOPVI/N0476F390 DCT PEPKI/M083F390 DCT SAVRY DCT 59N050W 60N040W 61N030W 60N020W DCT ERAKA/N0472F390 DCT ETSOM/N0478F410 DCT KELLY L10 HON P155 SIVDA P137 REDFA
Aircraft B772/H-SDE2E3FGHIJ5LORVWXY/LB1D1

Departure

Time 2026-04-30 11:31
Airport San Francisco International Airport (KSFO)

Arrival

Time N/A
Airport Amsterdam Airport Schiphol (EHAM)
Time Latitude Longitude Altitude Speed Heading
2026-04-30 10:41 37.61777 -122.38955 40 ft 0 kts 208°
2026-04-30 10:42 37.61777 -122.38954 40 ft 0 kts 208°
2026-04-30 11:07 37.61777 -122.38953 40 ft 0 kts 210°
2026-04-30 11:15 37.61785 -122.38948 40 ft 2 kts 210°
2026-04-30 11:15 37.61798 -122.38939 40 ft 2 kts 210°
2026-04-30 11:16 37.61811 -122.38929 40 ft 2 kts 210°
2026-04-30 11:16 37.61824 -122.38920 40 ft 2 kts 211°
2026-04-30 11:16 37.61832 -122.38906 40 ft 2 kts 270°
2026-04-30 11:16 37.61830 -122.38894 40 ft 1 kts 301°
2026-04-30 11:17 37.61829 -122.38890 40 ft 0 kts 298°
2026-04-30 11:20 37.61832 -122.38898 40 ft 2 kts 298°
2026-04-30 11:20 37.61844 -122.38927 40 ft 6 kts 297°
2026-04-30 11:20 37.61871 -122.38992 40 ft 10 kts 297°
2026-04-30 11:21 37.61910 -122.39088 39 ft 13 kts 297°
2026-04-30 11:21 37.61955 -122.39198 39 ft 14 kts 297°
2026-04-30 11:21 37.61996 -122.39300 38 ft 9 kts 300°
2026-04-30 11:21 37.62056 -122.39322 38 ft 10 kts 22°
2026-04-30 11:22 37.62126 -122.39274 37 ft 12 kts 28°
2026-04-30 11:22 37.62208 -122.39221 36 ft 13 kts 27°
2026-04-30 11:22 37.62288 -122.39151 36 ft 14 kts 51°
2026-04-30 11:22 37.62323 -122.39043 36 ft 13 kts 73°
2026-04-30 11:23 37.62343 -122.38950 36 ft 10 kts 87°
2026-04-30 11:23 37.62318 -122.38864 36 ft 11 kts 118°
2026-04-30 11:23 37.62241 -122.38680 37 ft 12 kts 118°
2026-04-30 11:24 37.62194 -122.38570 38 ft 16 kts 117°
2026-04-30 11:24 37.62138 -122.38432 38 ft 18 kts 117°
2026-04-30 11:24 37.62075 -122.38282 38 ft 19 kts 118°
2026-04-30 11:25 37.61955 -122.38007 37 ft 11 kts 124°
2026-04-30 11:25 37.61900 -122.37932 36 ft 12 kts 142°
2026-04-30 11:25 37.61796 -122.37761 34 ft 14 kts 110°
2026-04-30 11:26 37.61710 -122.37490 29 ft 18 kts 117°
2026-04-30 11:26 37.61647 -122.37341 27 ft 20 kts 118°
2026-04-30 11:26 37.61580 -122.37180 25 ft 21 kts 118°
2026-04-30 11:27 37.61509 -122.37010 23 ft 22 kts 118°
2026-04-30 11:27 37.61424 -122.36857 21 ft 19 kts 135°
2026-04-30 11:27 37.61340 -122.36716 20 ft 20 kts 119°
2026-04-30 11:27 37.61274 -122.36556 20 ft 20 kts 117°
2026-04-30 11:28 37.61136 -122.36231 19 ft 21 kts 118°
2026-04-30 11:28 37.61069 -122.36075 19 ft 15 kts 118°
2026-04-30 11:28 37.61051 -122.35973 18 ft 12 kts 81°
2026-04-30 11:29 37.61107 -122.35896 18 ft 13 kts 27°
2026-04-30 11:29 37.61191 -122.35842 18 ft 13 kts 28°
2026-04-30 11:29 37.61340 -122.35743 18 ft 8 kts 22°
2026-04-30 11:30 37.61379 -122.35771 18 ft 0 kts 296°
2026-04-30 11:30 37.61398 -122.35820 18 ft 28 kts 297°
2026-04-30 11:31 37.61600 -122.36304 20 ft 94 kts 298°
2026-04-30 11:31 37.61989 -122.37234 26 ft 147 kts 297°
2026-04-30 11:31 37.62525 -122.38517 247 ft 169 kts 297°
2026-04-30 11:31 37.63041 -122.39819 877 ft 168 kts 297°
2026-04-30 11:32 37.63546 -122.41103 1567 ft 168 kts 297°
2026-04-30 11:32 37.64074 -122.42401 2034 ft 168 kts 298°
2026-04-30 11:32 37.64618 -122.43741 2452 ft 169 kts 299°
2026-04-30 11:33 37.65720 -122.46409 3200 ft 176 kts 300°
2026-04-30 11:33 37.66329 -122.47865 3342 ft 195 kts 300°
2026-04-30 11:33 37.66975 -122.49392 3660 ft 205 kts 300°
2026-04-30 11:33 37.67713 -122.51008 3963 ft 216 kts 310°
2026-04-30 11:34 37.68850 -122.52230 4402 ft 218 kts 334°
2026-04-30 11:34 37.70358 -122.52777 4585 ft 235 kts 359°
2026-04-30 11:34 37.72041 -122.52671 4843 ft 250 kts
2026-04-30 11:34 37.73825 -122.52601 5235 ft 259 kts
2026-04-30 11:35 37.75631 -122.52640 5755 ft 265 kts 359°
2026-04-30 11:35 37.77490 -122.52714 6303 ft 267 kts
2026-04-30 11:35 37.79323 -122.52341 6802 ft 271 kts 23°
2026-04-30 11:35 37.80881 -122.51086 7372 ft 270 kts 45°
2026-04-30 11:36 37.81965 -122.49174 7954 ft 272 kts 64°
2026-04-30 11:36 37.82679 -122.46916 8327 ft 281 kts 69°
2026-04-30 11:36 37.83440 -122.44677 8981 ft 277 kts 58°
2026-04-30 11:36 37.84620 -122.42714 9422 ft 283 kts 50°
2026-04-30 11:37 37.85908 -122.40816 9966 ft 285 kts 49°
2026-04-30 11:37 37.87219 -122.38943 10339 ft 294 kts 49°
2026-04-30 11:37 37.88633 -122.36926 10521 ft 310 kts 48°
2026-04-30 11:37 37.90066 -122.34875 10979 ft 316 kts 48°
2026-04-30 11:38 37.91521 -122.32789 11453 ft 322 kts 48°
2026-04-30 11:38 37.93037 -122.30608 11682 ft 337 kts 48°
2026-04-30 11:38 37.94623 -122.28314 12070 ft 346 kts 48°
2026-04-30 11:38 37.96191 -122.26009 12593 ft 351 kts 48°
2026-04-30 11:39 37.97816 -122.23591 12704 ft 370 kts 49°
2026-04-30 11:39 37.99510 -122.21062 13018 ft 380 kts 48°
2026-04-30 11:39 38.01250 -122.18523 13664 ft 381 kts 47°
2026-04-30 11:39 38.02975 -122.16013 14338 ft 382 kts 47°
2026-04-30 11:40 38.04718 -122.13474 14891 ft 387 kts 46°
2026-04-30 11:40 38.06502 -122.10873 15461 ft 391 kts 46°
2026-04-30 11:40 38.08289 -122.08267 16046 ft 394 kts 46°
2026-04-30 11:40 38.10098 -122.05625 16627 ft 398 kts 46°
2026-04-30 11:41 38.11928 -122.02952 17185 ft 401 kts 46°
2026-04-30 11:41 38.13768 -122.00261 17720 ft 405 kts 46°
2026-04-30 11:41 38.15639 -121.97521 18277 ft 408 kts 46°
2026-04-30 11:41 38.17495 -121.94803 18829 ft 412 kts 46°
2026-04-30 11:42 38.19387 -121.92029 19385 ft 414 kts 46°
2026-04-30 11:42 38.21271 -121.89264 19905 ft 418 kts 46°
2026-04-30 11:42 38.23182 -121.86456 20431 ft 421 kts 46°
2026-04-30 11:42 38.25084 -121.83660 20950 ft 424 kts 46°
2026-04-30 11:43 38.27033 -121.80792 21443 ft 428 kts 46°
2026-04-30 11:43 38.28968 -121.77941 21924 ft 431 kts 46°
2026-04-30 11:43 38.30932 -121.75047 22420 ft 434 kts 46°
2026-04-30 11:43 38.32920 -121.72112 22891 ft 437 kts 46°
2026-04-30 11:44 38.34896 -121.69192 23371 ft 440 kts 46°
2026-04-30 11:44 38.36918 -121.66203 23816 ft 443 kts 46°
2026-04-30 11:44 38.38913 -121.63251 24223 ft 447 kts 46°
2026-04-30 11:44 38.40944 -121.60242 24653 ft 450 kts 46°
2026-04-30 11:45 38.43005 -121.57184 25104 ft 453 kts 46°
2026-04-30 11:45 38.45052 -121.54126 25500 ft 457 kts 47°
2026-04-30 11:45 38.46996 -121.50884 25881 ft 462 kts 50°
2026-04-30 11:45 38.48912 -121.47591 26260 ft 465 kts 50°
2026-04-30 11:46 38.50839 -121.44285 26638 ft 468 kts 50°
2026-04-30 11:46 38.52803 -121.40920 27015 ft 470 kts 50°
2026-04-30 11:46 38.54755 -121.37581 27378 ft 473 kts 50°
2026-04-30 11:46 38.56720 -121.34223 27725 ft 476 kts 50°
2026-04-30 11:47 38.58727 -121.30792 28019 ft 480 kts 50°
2026-04-30 11:47 38.60740 -121.27349 28353 ft 482 kts 50°
2026-04-30 11:47 38.62757 -121.23900 28684 ft 484 kts 50°
2026-04-30 11:47 38.64787 -121.20425 29002 ft 487 kts 50°
2026-04-30 11:48 38.66799 -121.16978 29277 ft 490 kts 50°
2026-04-30 11:48 38.68854 -121.13455 29566 ft 492 kts 50°
2026-04-30 11:48 38.70897 -121.09947 29923 ft 493 kts 50°
2026-04-30 11:48 38.72930 -121.06453 30358 ft 492 kts 49°
2026-04-30 11:49 38.74981 -121.02927 30842 ft 490 kts 49°
2026-04-30 11:49 38.77014 -120.99425 31305 ft 488 kts 49°
2026-04-30 11:49 38.79038 -120.95937 31711 ft 488 kts 49°
2026-04-30 11:49 38.81059 -120.92450 32087 ft 488 kts 49°
2026-04-30 11:50 38.83063 -120.88990 32465 ft 487 kts 49°
2026-04-30 11:50 38.85090 -120.85486 32858 ft 487 kts 49°
2026-04-30 11:50 38.87091 -120.82023 33214 ft 486 kts 49°
2026-04-30 11:50 38.89112 -120.78522 33601 ft 485 kts 49°
2026-04-30 11:51 38.91134 -120.75016 34015 ft 484 kts 49°
2026-04-30 11:51 38.93133 -120.71544 34381 ft 483 kts 49°
2026-04-30 11:51 38.95118 -120.68096 34656 ft 483 kts 49°
2026-04-30 11:51 38.97114 -120.64623 34927 ft 482 kts 48°
2026-04-30 11:52 38.99103 -120.61159 35130 ft 483 kts 48°
2026-04-30 11:52 39.01117 -120.57650 35149 ft 484 kts 48°